Flag for U.S.A. Weather past 2 weeks in Moreno Valley, California, U.S.A.

Now
72 °F

Sunny.


Feels Like: 77 °F
Forecast: 56 / 78 °F
Wind: 14 mph from Northwest

Location: Riverside / March Air Force Base

Current Time: May 26, 2015 at 7:04:03 PM

Latest Report: May 26, 2015 at 5:58 PM


Visibility: 10 mi

Pressure: 29.90 "Hg

Humidity: 51%

Dew point: 53 °F

Location of Moreno ValleyLocation

Historic Weather in Moreno Valley — Graph

°F

Moreno Valley temperature yesterday

Maximum temperature yesterday: 74 °F (at 4:58 PM)
Minimum temperature yesterday: 50 °F (at 2:58 AM)
Average temperature yesterday: 60 °F

Past Weeks' High & Low Weather Summary

 TemperatureHumidityPressure
High80 °F (May 11, 5:58 PM)100% (May 12, 6:03 AM)30.08 "Hg (May 12, 6:03 AM)
Low48 °F (May 15, 12:58 AM)17% (May 11, 5:58 PM)29.78 "Hg (May 11, 5:58 PM)
Average59 °F72%29.95 "Hg
* Reported May 11 5:58 PM — May 26 5:58 PM, Moreno Valley, Weather by CustomWeather, © 2015

Note: Actual official high and low records may vary slightly from our data, if they occured in-between our weather recording intervals... More about our weather records

Advertising

Moreno Valley weather history for previous 24 hours

 ConditionsComfort  
Time TempWeatherWind HumidityBarometerVisibility
5:58 PM
Tue, May 26
72 °FSunny.14 mph51%29.90 "Hg10 mi
4:58 PM76 °FPartly sunny.12 mph43%29.90 "Hg10 mi
3:58 PM76 °FSunny.8 mph44%29.91 "Hg10 mi
2:58 PM76 °FPartly sunny.12 mph45%29.92 "Hg10 mi
1:58 PM74 °FScattered clouds.7 mph49%29.94 "Hg10 mi
12:58 PM71 °FPartly sunny.8 mph53%29.96 "Hg10 mi
11:58 AM68 °FScattered clouds.6 mph59%29.97 "Hg10 mi
10:58 AM65 °FSunny.6 mph65%29.97 "Hg10 mi
10:03 AM61 °FOvercast.6 mph77%29.99 "Hg10 mi
9:58 AM61 °FOvercast.6 mph77%29.97 "Hg10 mi
9:03 AM59 °FOvercast.2 mph82%29.99 "Hg10 mi
7:58 AM57 °FLow clouds.3 mph88%29.97 "Hg10 mi
6:58 AM58 °FLow clouds.3 mph89%29.98 "Hg10 mi
5:58 AM57 °FLow clouds.5 mph91%29.97 "Hg9 mi
4:58 AM58 °FOvercast.No wind90%29.96 "Hg10 mi
3:58 AM58 °FOvercast.2 mph89%29.95 "Hg10 mi
2:58 AM58 °FOvercast.3 mph91%29.93 "Hg10 mi
1:58 AM58 °FOvercast.3 mph92%29.95 "Hg10 mi
12:58 AM57 °FOvercast.5 mph95%29.96 "Hg10 mi
11:58 PM
Mon, May 25
56 °FPassing clouds.2 mph94%29.98 "Hg10 mi
10:58 PM56 °FClear.3 mph91%29.98 "Hg10 mi
9:58 PM58 °FClear.6 mph83%29.98 "Hg10 mi
8:58 PM60 °FClear.6 mph80%29.95 "Hg10 mi
7:58 PM63 °FSunny.9 mph73%29.93 "Hg10 mi
Weather by CustomWeather, © 2015

See weather overviewHow to use our weather pages